Location: *
(45.4590°N, 16.3650°E)
Time: 05:18:06
(UTC+00:00)

Cosmos 2219 - Pass Details

Date: 17 January 2020
Orbit: 833 x 861 km, 71.1° (Epoch: 24 February)

Event Time Altitude Azimuth Distance (km) Brightness Sun altitude
Rises 17:19:46 0° 184° (S) 3,363 6.5 -17.2°
Reaches altitude 10° 17:22:17 10° 178° (S) 2,434 5.7 -17.6°
Maximum altitude 17:27:33 44° 108° (ESE) 1,136 3.5 -18.6°
Enters shadow 17:29:30 32° 61° (ENE) 1,393 3.8 -18.9°
